EW1549 Weather Reports


Display with metric or nautical units.
time (UTC)temp
F
wind
direction
speed
MPH
gust
MPH
rain 1hr
in
rain 24hr
in
rain mn
in
humidity
%
barometer
mb
20260901021550 0 256 0.0 5.0 0.00 0.00 0.00 1018.1
20260901020042 0 243 4.0 11.0 0.00 0.00 0.00 1018.0
20260901014537 0 241 5.0 9.0 0.00 0.00 0.00 1018.3
20260901013037 0 254 4.0 8.0 0.00 0.00 0.00 1018.4
20260901011532 0 253 5.0 7.0 0.00 0.00 0.00 1018.4
20260901010027 0 250 3.0 6.0 0.00 0.00 0.00 1018.6
20260901004517 0 246 3.0 5.0 0.00 0.00 0.00 1018.7
20260901003021 0 264 2.0 5.0 0.00 0.00 0.00 1018.9
20260901001508 0 264 4.0 9.0 0.00 0.00 0.00 1019.0
20260901000004 0 250 2.0 5.0 0.00 0.00 0.00 1019.0
20260831234600 0 245 0.0 0.0 0.00 0.00 0.00 1018.9
20260831233037 0 245 0.0 3.0 0.00 0.00 0.00 1019.1
20260831231532 0 230 0.0 6.0 0.00 0.00 0.00 1019.2
20260831230028 0 295 0.0 7.0 0.00 0.00 0.00 1019.3
20260831224527 0 292 4.0 7.0 0.00 0.00 0.00 1019.3
20260831223024 0 248 0.0 5.0 0.00 0.00 0.00 1019.4
20260831221528 0 237 0.0 5.0 0.00 0.00 0.00 1019.6
20260831220015 0 310 3.0 4.0 0.00 0.00 0.00 1019.5
20260831214509 0 287 0.0 4.0 0.00 0.00 0.00 1019.5
20260831213009 0 302 2.0 6.0 0.00 0.00 0.00 1019.3
20260831211502 0 170 0.0 5.0 0.00 0.00 0.00 1019.1
20260831210057 0 46 0.0 4.0 0.00 0.00 0.00 1018.8
20260831204553 0 13 1.0 5.0 0.00 0.00 0.00 1018.4
20260831203049 0 28 7.0 13.0 0.00 0.00 0.00 1018.0
20260831201544 0 63 4.0 11.0 0.00 0.00 0.00 1017.8
20260831200042 0 41 4.0 12.0 0.00 0.00 0.00 1017.6
20260831194535 0 69 4.0 12.0 0.00 0.00 0.00 1017.4
20260831193039 0 143 5.0 12.0 0.00 0.00 0.00 1017.2
20260831191526 0 70 5.0 17.0 0.00 0.00 0.00 1017.1
20260831190038 0 76 6.0 17.0 0.00 0.00 0.00 1017.2
20260831184516 0 110 8.0 17.0 0.00 0.00 0.00 1017.1
20260831183015 0 73 9.0 17.0 0.00 0.00 0.00 1016.8
20260831181508 0 78 8.0 20.0 0.00 0.00 0.00 1016.8
20260831180104 0 52 10.0 19.0 0.00 0.00 0.00 1017.0
20260831174633 0 75 6.0 18.0 0.00 0.00 0.00 1016.9
20260831173055 0 66 10.0 21.0 0.00 0.00 0.00 1016.7
20260831171550 0 69 9.0 23.0 0.00 0.00 0.00 1016.8
20260831170025 0 83 11.0 18.0 0.00 0.00 0.00 1016.9
20260831164522 0 77 8.0 16.0 0.00 0.00 0.00 1016.9
20260831163019 0 74 7.0 18.0 0.00 0.00 0.00 1017.0
20260831161512 0 64 8.0 20.0 0.00 0.00 0.00 1017.1
20260831160012 0 87 7.0 15.0 0.00 0.00 0.00 1017.2
20260831154614 0 56 11.0 20.0 0.00 0.00 0.00 1017.3
20260831153112 0 137 7.0 19.0 0.00 0.00 0.00 1017.5
20260831151554 0 59 14.0 21.0 0.00 0.00 0.00 1017.4
20260831150054 0 46 11.0 16.0 0.00 0.00 0.00 1017.5
20260831144546 0 50 11.0 21.0 0.00 0.00 0.00 1017.5
20260831143044 0 46 10.0 18.0 0.00 0.00 0.00 1017.6
20260831141536 0 100 8.0 21.0 0.00 0.00 0.00 1017.8
20260831140036 0 46 12.0 21.0 0.00 0.00 0.00 1017.7
20260831134527 0 36 12.0 21.0 0.00 0.00 0.00 1017.7
20260831133022 0 54 11.0 21.0 0.00 0.00 0.00 1017.8
20260831131519 0 60 13.0 24.0 0.00 0.00 0.00 1017.6
20260831130014 0 25 10.0 21.0 0.00 0.00 0.00 1017.8
20260831124510 0 21 13.0 21.0 0.00 0.00 0.00 1017.8
20260831123009 0 50 9.0 19.0 0.00 0.00 0.00 1018.0
20260831121506 0 41 8.0 19.0 0.00 0.00 0.00 1018.1
20260831120001 0 69 10.0 19.0 0.00 0.00 0.00 1018.2
20260831114558 0 41 9.0 14.0 0.00 0.00 0.00 1018.3
20260831113102 0 41 8.0 16.0 0.00 0.00 0.00 1018.3
20260831111548 0 46 7.0 15.0 0.00 0.00 0.00 1018.4
20260831110044 0 46 10.0 16.0 0.00 0.00 0.00 1018.5
20260831104550 0 51 1.0 13.0 0.00 0.00 0.00 1018.5
20260831103038 0 7 5.0 16.0 0.00 0.00 0.00 1018.4
20260831101544 0 36 8.0 16.0 0.00 0.00 0.00 1018.3
20260831100037 0 36 6.0 14.0 0.00 0.00 0.00 1018.4
20260831094540 0 4 4.0 13.0 0.00 0.00 0.00 1018.5
20260831093031 0 221 0.0 3.0 0.00 0.00 0.00 1018.4
20260831091540 0 250 2.0 4.0 0.00 0.00 0.00 1018.3
20260831090027 0 300 0.0 0.0 0.00 0.00 0.00 1018.2
20260831084606 0 300 0.0 3.0 0.00 0.00 0.00 1018.1
20260831083023 0 300 1.0 6.0 0.00 0.00 0.00 1017.9
20260831081519 0 279 0.0 0.0 0.00 0.00 0.00 1018.1
20260831080033 0 243 0.0 4.0 0.00 0.00 0.00 1018.0
20260831074521 0 263 2.0 6.0 0.00 0.00 0.00 1017.8
20260831073005 0 236 0.0 0.0 0.00 0.00 0.00 1017.6
20260831071502 0 236 2.0 5.0 0.00 0.00 0.00 1017.4
20260831070057 0 236 0.0 4.0 0.00 0.00 0.00 1017.3
20260831064556 0 236 0.0 3.0 0.00 0.00 0.00 1017.3
20260831063103 0 236 2.0 4.0 0.00 0.00 0.00 1017.3
20260831061544 0 236 0.0 4.0 0.00 0.00 0.00 1017.3
20260831060040 0 236 0.0 4.0 0.00 0.00 0.00 1017.2
20260831054534 0 236 0.0 4.0 0.00 0.00 0.00 1017.2
20260831053030 0 236 2.0 5.0 0.00 0.00 0.00 1017.3
20260831051559 0 236 1.0 3.0 0.00 0.00 0.00 1017.4
20260831050054 0 236 3.0 6.0 0.00 0.00 0.00 1017.4
20260831044548 0 263 0.0 5.0 0.00 0.00 0.00 1017.4
20260831043049 0 220 2.0 4.0 0.00 0.00 0.00 1017.4
20260831041548 0 41 4.0 11.0 0.00 0.00 0.00 1017.5
20260831040040 0 130 0.0 9.0 0.00 0.00 0.00 1017.7
20260831034529 0 356 0.0 4.0 0.00 0.00 0.00 1017.8
20260831033025 0 60 2.0 9.0 0.00 0.00 0.00 1017.9
20260831031520 0 211 0.0 0.0 0.00 0.00 0.00 1018.1
20260831030016 0 212 0.0 5.0 0.00 0.00 0.00 1018.1
20260831024512 0 213 3.0 6.0 0.00 0.00 0.00 1018.1
20260831023008 0 223 0.0 0.0 0.00 0.00 0.00 1018.2